Погода в им. Тельмана

Россия / Еврейская автономная область     48°32′50″N   134°58′32″E
темп.,
°C
ветер,
м/с
пор.,
м/с
влажн.,
%
обл.,
%
осадки,
мм/ч
давл.,
гПа
погр.,
м
13 мая, чт
чт1301:00+9ю51281100 0.1 1009649
04:00+9ююв5118696 0.1 1007573
07:00+9ю51180100 0.1 1007688
10:00+13ююз81067100 0.1 10061261
13:00+15юз8115846 0.6 10051662
16:00+16з6105518 0.8 10051692
19:00+15з47575 0.0 1005541
22:00+11ююз22755 0.1 100614
14 мая, пт
пт1401:00+8зюз368820 0.9 100782
04:00+8зюз489117 0.9 1008176
07:00+8зюз478911 0.0 1010185
10:00+14з56600 0.0 1011964
13:00+18зсз574519 0.0 10101296
16:00+20зсз344015 0.0 10091345
19:00+18в2250100 0.0 100928
22:00+14вюв51162100 0.0 1008181
15 мая, сб
сб1501:00+14юв41157100 0.0 1005212
04:00+17ююз91742100 0.0 10031179
07:00+13ююв112079100 0.6 10001187
10:00+12ю91889100 3.1 9981080
13:00+17з9125796 0.7 9981677
16:00+17зюз101251100 0.9 9991833
19:00+16зюз7115279 0.1 1000951
22:00+12зюз7156840 0.2 1001530
16 мая, вс
вс1601:00+11зюз815645 0.0 1002735
04:00+10зюз7156531 0.0 1001653
07:00+11зюз813665 0.0 1002804
10:00+15з812524 0.0 10021532
13:00+17зсз9124431 0.0 10012131
16:00+18зсз7113964 0.0 10012504
19:00+17зсз59479 0.0 1001675
22:00+12зсз33640 0.0 100231
17 мая, пн
пн1701:00+11зюз226389 0.0 100323
04:00+8ссз22744 0.0 100316
07:00+9всв23763 0.0 1004150
10:00+15св11550 0.0 1004600
13:00+19зсз34410 0.0 10031385
16:00+22зюз46341 0.0 10022240
19:00+21зюз24459 0.0 100196
22:00+18ю474686 0.0 1002107